Weather History for Plant City, FL

Change the Weather History Date:

Thursday, December 20, 2012

  Actual Average Record
Temperature  
Mean Temperature 68 °F -  
Max Temperature 84 °F 75 °F 88 °F (1967)
Min Temperature 53 °F 48 °F 27 °F (1981)
Cooling Degree Days 4    
Growing Degree Days 18 (Base 50)    
Moisture  
Dew Point 64 °F    
Average Humidity 63    
Maximum Humidity 100    
Minimum Humidity 45    
Precipitation  
Precipitation 0.49 in - - ()
Sea Level Pressure  
Sea Level Pressure 30.04 in    
Wind  
Wind Speed 7 mph (South)    
Max Wind Speed 16 mph    
Max Gust Speed 26 mph    
Visibility 9 miles    
Events Rain    
Averages and records for this station are not official NWS values.
T = Trace of Precipitation, MM = Missing Value Source: NWS Daily Summary

Daily Weather History Graph

Daily Weather History Graph

Search for Another Location

Airport:

Trip Planner

Search our weather history database for the weather conditions in past years. The results will help you decide how hot, cold, wet, or windy it might be!

Date:

Astronomy

Dec. 20, 2012 Rise Set
Actual Time 7:15 AM EST 5:37 PM EST
Civil Twilight 6:49 AM EST 6:03 PM EST
Nautical Twilight 6:20 AM EST 6:32 PM EST
Astronomical Twilight 5:51 AM EST 7:01 PM EST
Moon 12:30 PM EST (12/20) 12:28 AM EST (12/20)
Length of Visible Light 11h 13m
Length of Day
10h 22m
First Quarter, 55% of the Moon is Illuminated
Dec 20
First Quarter
Dec 28
Full
Jan 4
Last Quarter
Jan 11
New
Jan 18
First Quarter

Hourly Weather History & Observations

Time (EST) Temp. Heat Index Dew Point Humidity Pressure Visibility Wind Dir Wind Speed Gust Speed Precip Events Conditions
12:15 AM 53.6 °F - 53.6 °F 100% 30.10 in 10.0 mi East 3.5 mph - N/A   Clear
12:35 AM 53.6 °F - - N/A% 30.10 in 10.0 mi ESE 3.5 mph - N/A   Clear
12:55 AM 53.6 °F - - N/A% 30.09 in 10.0 mi ESE 4.6 mph - N/A   Clear
1:15 AM 55.4 °F - - N/A% 30.09 in 10.0 mi ESE 4.6 mph - N/A   Clear
1:35 AM 57.2 °F - - N/A% 30.09 in 10.0 mi ESE 3.5 mph - N/A   Clear
1:55 AM 57.2 °F - - N/A% 30.09 in 10.0 mi ESE 3.5 mph - N/A   Clear
2:15 AM 57.2 °F - - N/A% 30.09 in 10.0 mi ESE 3.5 mph - N/A   Clear
2:35 AM 57.2 °F - - N/A% 30.09 in 10.0 mi ESE 3.5 mph - N/A   Clear
2:55 AM 55.4 °F - - N/A% 30.09 in 10.0 mi ESE 3.5 mph - N/A   Clear
3:15 AM 57.2 °F - - N/A% 30.09 in 10.0 mi ESE 3.5 mph - N/A   Clear
3:35 AM 55.4 °F - - N/A% 30.08 in 10.0 mi ESE 4.6 mph - N/A   Clear
3:55 AM 57.2 °F - - N/A% 30.08 in 10.0 mi SE 4.6 mph - N/A   Clear
4:15 AM 59.0 °F - - N/A% 30.08 in 10.0 mi SE 4.6 mph - N/A   Clear
4:35 AM 60.8 °F - - N/A% 30.07 in 10.0 mi SE 5.8 mph - N/A   Clear
4:55 AM 60.8 °F - - N/A% 30.07 in 10.0 mi SE 5.8 mph - N/A   Clear
5:15 AM 60.8 °F - - N/A% 30.07 in 10.0 mi SE 4.6 mph - N/A   Clear
5:35 AM 62.6 °F - - N/A% 30.07 in 7.0 mi SE 4.6 mph - N/A   Clear
5:55 AM 62.6 °F - - N/A% 30.07 in 7.0 mi SE 5.8 mph - N/A   Clear
6:15 AM 62.6 °F - - N/A% 30.07 in 7.0 mi SE 5.8 mph - N/A   Clear
6:35 AM 62.6 °F - - N/A% 30.08 in 7.0 mi SE 4.6 mph - N/A   Clear
6:55 AM 62.6 °F - - N/A% 30.08 in 7.0 mi SE 5.8 mph - N/A   Clear
7:15 AM 62.6 °F - - N/A% 30.09 in 5.0 mi SE 3.5 mph - N/A   Haze
7:35 AM 62.6 °F - - N/A% 30.09 in 4.0 mi SE 4.6 mph - N/A   Haze
7:55 AM 62.6 °F - - N/A% 30.10 in 4.0 mi SE 4.6 mph - N/A   Haze
8:15 AM 64.4 °F - - N/A% 30.11 in 5.0 mi SSE 3.5 mph - N/A   Haze
8:35 AM 66.2 °F - - N/A% 30.12 in 5.0 mi SE 3.5 mph - N/A   Haze
8:55 AM 68.0 °F - - N/A% 30.11 in 7.0 mi SSE 5.8 mph - N/A   Clear
9:15 AM 69.8 °F - - N/A% 30.11 in 10.0 mi SSE 6.9 mph - N/A   Clear
9:35 AM 71.6 °F - - N/A% 30.11 in 10.0 mi SSE 6.9 mph - N/A   Clear
9:55 AM 73.4 °F - 73.4 °F 100% 30.10 in 10.0 mi South 6.9 mph - N/A   Clear
10:15 AM 75.2 °F - 64.4 °F 69% 30.10 in 10.0 mi SSE 10.4 mph - N/A   Clear
10:35 AM 77.0 °F - 62.6 °F 61% 30.10 in 10.0 mi SSE 10.4 mph - N/A   Clear
10:55 AM 77.0 °F - 64.4 °F 65% 30.09 in 10.0 mi SE 9.2 mph - N/A   Clear
11:15 AM 78.8 °F - 64.4 °F 61% 30.08 in 10.0 mi South 8.1 mph - N/A   Clear
11:35 AM 78.8 °F - 62.6 °F 57% 30.07 in 10.0 mi South 8.1 mph 17.3 mph N/A   Clear
11:55 AM 80.6 °F 81.8 °F 62.6 °F 54% 30.05 in 10.0 mi SSW 15.0 mph 23.0 mph N/A   Clear
12:15 PM 80.6 °F 81.8 °F 62.6 °F 54% 30.04 in 10.0 mi South 11.5 mph 18.4 mph N/A   Clear
12:35 PM 82.4 °F 82.9 °F 60.8 °F 48% 30.03 in 10.0 mi SSW 12.7 mph 18.4 mph N/A   Clear
12:55 PM 82.4 °F 82.9 °F 60.8 °F 48% 30.01 in 10.0 mi South 10.4 mph 18.4 mph N/A   Clear
1:15 PM 82.4 °F 82.9 °F 60.8 °F 48% 30.00 in 10.0 mi South 11.5 mph - N/A   Clear
1:35 PM 82.4 °F 82.9 °F 60.8 °F 48% 29.99 in 10.0 mi South 16.1 mph 21.9 mph N/A   Scattered Clouds
1:55 PM 82.4 °F 82.9 °F 60.8 °F 48% 29.99 in 10.0 mi South 11.5 mph 18.4 mph N/A   Scattered Clouds
2:15 PM 84.2 °F 84.4 °F 60.8 °F 45% 29.99 in 10.0 mi South 10.4 mph 18.4 mph N/A   Scattered Clouds
2:35 PM 82.4 °F 82.9 °F 60.8 °F 48% 29.98 in 10.0 mi SSW 11.5 mph - N/A   Mostly Cloudy
2:55 PM 82.4 °F 82.9 °F 60.8 °F 48% 29.97 in 10.0 mi South 9.2 mph - N/A   Mostly Cloudy
3:15 PM 82.4 °F 83.4 °F 62.6 °F 51% 29.96 in 10.0 mi SSW 9.2 mph 16.1 mph N/A   Scattered Clouds
3:35 PM 82.4 °F 83.4 °F 62.6 °F 51% 29.96 in 10.0 mi South 12.7 mph 16.1 mph N/A   Scattered Clouds
3:55 PM 82.4 °F 82.9 °F 60.8 °F 48% 29.97 in 10.0 mi SW 12.7 mph 18.4 mph N/A   Scattered Clouds
4:15 PM 82.4 °F 82.5 °F 59.0 °F 45% 29.98 in 10.0 mi SW 12.7 mph 16.1 mph N/A   Clear
4:35 PM 80.6 °F 81.5 °F 60.8 °F 51% 29.99 in 10.0 mi SW 13.8 mph - N/A   Scattered Clouds
4:55 PM 80.6 °F 81.5 °F 60.8 °F 51% 29.99 in 10.0 mi SSW 12.7 mph 16.1 mph N/A   Clear
5:15 PM 78.8 °F - 60.8 °F 54% 29.99 in 10.0 mi SSW 8.1 mph - N/A   Clear
5:35 PM 77.0 °F - 62.6 °F 61% 29.99 in 10.0 mi SW 10.4 mph - N/A   Clear
5:55 PM 77.0 °F - 62.6 °F 61% 30.00 in 10.0 mi SW 8.1 mph - N/A   Scattered Clouds
6:15 PM 77.0 °F - 64.4 °F 65% 30.00 in 10.0 mi SSW 10.4 mph - N/A   Overcast
6:35 PM 75.2 °F - 64.4 °F 69% 30.00 in 10.0 mi SSW 10.4 mph - N/A   Mostly Cloudy
6:55 PM 75.2 °F - 64.4 °F 69% 30.00 in 10.0 mi SSW 8.1 mph - N/A   Scattered Clouds
7:15 PM 75.2 °F - 66.2 °F 73% 30.00 in 10.0 mi SSW 11.5 mph 16.1 mph N/A   Mostly Cloudy
7:35 PM 75.2 °F - 66.2 °F 73% 29.99 in 10.0 mi South 10.4 mph - N/A   Overcast
7:55 PM 75.2 °F - 66.2 °F 73% 29.99 in 10.0 mi SSW 10.4 mph 17.3 mph N/A   Overcast
8:15 PM 75.2 °F - 66.2 °F 73% 29.99 in 10.0 mi South 12.7 mph 18.4 mph N/A   Overcast
8:35 PM 75.2 °F - 66.2 °F 73% 29.99 in 10.0 mi SSW 12.7 mph - N/A   Mostly Cloudy
8:55 PM 75.2 °F - 66.2 °F 73% 29.99 in 10.0 mi SSW 10.4 mph 18.4 mph N/A   Overcast
9:15 PM 75.2 °F - 66.2 °F 73% 29.99 in 10.0 mi SSW 13.8 mph 19.6 mph N/A   Overcast
9:35 PM 75.2 °F - 68.0 °F 78% 29.99 in 10.0 mi SSW 9.2 mph 20.7 mph N/A   Overcast
9:55 PM 73.4 °F - 68.0 °F 83% 29.99 in 10.0 mi SSW 12.7 mph - N/A   Overcast
10:15 PM 73.4 °F - 68.0 °F 83% 29.98 in 10.0 mi SSW 10.4 mph 17.3 mph N/A Rain Rain
10:35 PM 73.4 °F - 73.4 °F 100% 29.98 in 7.0 mi SSW 10.4 mph 20.7 mph 0.02 in Rain Light Rain
10:55 PM 71.6 °F - - N/A% 29.98 in 10.0 mi SSW 6.9 mph - 0.03 in Rain Light Rain
11:15 PM 69.8 °F - - N/A% 29.99 in 2.0 mi West 11.5 mph 26.5 mph 0.42 in Rain Heavy Rain
11:35 PM 71.6 °F - - N/A% 29.99 in 10.0 mi WSW 11.5 mph 19.6 mph 0.46 in Rain Rain
11:55 PM 71.6 °F - - N/A% 29.99 in 10.0 mi WSW 8.1 mph - 0.46 in   Overcast